SV2RCS-13 Weather Reports


time (UTC)temp
C
wind
direction
speed
KPH
gust
KPH
rain 1hr
cm
rain 24hr
cm
rain mn
cm
humidity
%
barometer
mb
20260503224659 7 0.0 0.0 0.00 0.00 0.00 38 1019.6
20260503223700 7 0.0 0.0 0.00 0.00 0.00 38 1019.6
20260503222659 7 0.0 0.0 0.00 0.00 0.00 38 1019.5
20260503221659 8 0.0 0.0 0.00 0.00 0.00 37 1019.2
20260503220700 8 0.0 0.0 0.00 0.00 0.00 38 1019.4
20260503215659 8 0.0 0.0 0.00 0.00 0.00 37 1019.4
20260503214659 8 0.0 0.0 0.00 0.00 0.00 38 1019.4
20260503213700 8 0.0 0.0 0.00 0.00 0.00 39 1019.4
20260503212703 8 0.0 0.0 0.00 0.00 0.00 39 1019.3
20260503211659 8 0.0 0.0 0.00 0.00 0.00 40 1019.4
20260503210659 8 0.0 0.0 0.00 0.00 0.00 39 1019.3
20260503205659 8 0.0 0.0 0.00 0.00 0.00 40 1019.3
20260503204659 8 0.0 0.0 0.00 0.00 0.00 40 1019.4
20260503203700 7 0.0 0.0 0.00 0.00 0.00 40 1019.3
20260503202659 8 0.0 0.0 0.00 0.00 0.00 39 1019.3
20260503201700 8 0.0 0.0 0.00 0.00 0.00 39 1019.4
20260503200700 8 0.0 0.0 0.00 0.00 0.00 39 1019.4
20260503195700 8 0.0 0.0 0.00 0.00 0.00 39 1019.4
20260503194659 8 0.0 0.0 0.00 0.00 0.00 39 1019.2
20260503193700 8 0.0 0.0 0.00 0.00 0.00 40 1019.2
20260503192659 8 0.0 0.0 0.00 0.00 0.00 39 1019.2
20260503191659 8 0.0 0.0 0.00 0.00 0.00 39 1019.2
20260503190700 8 0.0 0.0 0.00 0.00 0.00 39 1019.1
20260503185659 8 0.0 0.0 0.00 0.00 0.00 39 1019.0
20260503184659 8 0.0 0.0 0.00 0.00 0.00 39 1018.8
20260503183659 8 0.0 0.0 0.00 0.00 0.00 39 1018.6
20260503182700 8 0.0 0.0 0.00 0.00 0.00 40 1018.5
20260503181700 9 0.0 0.0 0.00 0.00 0.00 40 1018.3
20260503180700 9 0.0 0.0 0.00 0.00 0.00 39 1018.0
20260503175700 9 0.0 0.0 0.00 0.00 0.00 39 1018.1
20260503174701 10 0.0 0.0 0.00 0.00 0.00 38 1017.9
20260503173701 10 0.0 0.0 0.00 0.00 0.00 37 1017.6
20260503172659 10 0.0 0.0 0.00 0.00 0.00 37 1017.4
20260503171702 10 0.0 0.0 0.00 0.00 0.00 34 1017.2
20260503170659 11 0.0 0.0 0.00 0.00 0.00 29 1016.9
20260503150659 12 0.0 0.0 0.00 0.00 0.00 24 1016.3
20260503130700 12 0.0 0.0 0.00 0.00 0.00 21 1016.3
20260503110701 12 0.0 0.0 0.00 0.00 0.00 21 1016.7
20260503080700 13 0.0 0.0 0.00 0.00 0.00 25 1016.6
20260503072659 14 0.0 0.0 0.00 0.00 0.00 27 1016.4
20260503071659 13 0.0 0.0 0.00 0.00 0.00 33 1016.7
20260503070659 12 0.0 0.0 0.00 0.00 0.00 34 1017.1
20260503054659 9 0.0 0.0 0.00 0.00 0.00 44 1017.6
20260503053659 9 0.0 0.0 0.00 0.00 0.00 49 1017.9
20260503052659 9 0.0 0.0 0.00 0.00 0.00 46 1017.8
20260503051659 9 0.0 0.0 0.00 0.00 0.00 44 1017.6
20260503050659 10 0.0 0.0 0.00 0.00 0.00 44 1017.3
20260503045659 10 0.0 0.0 0.00 0.00 0.00 45 1017.4
20260503044659 9 0.0 0.0 0.00 0.00 0.00 44 1017.3
20260503043700 9 0.0 0.0 0.00 0.00 0.00 43 1017.1
20260503042659 9 0.0 0.0 0.00 0.00 0.00 45 1016.9
20260503041659 8 0.0 0.0 0.00 0.00 0.00 48 1017.0
20260503040659 8 0.0 0.0 0.00 0.00 0.00 48 1016.9
20260503035659 8 0.0 0.0 0.00 0.00 0.00 50 1016.8
20260503034659 8 0.0 0.0 0.00 0.00 0.00 50 1017.2
20260503033659 7 0.0 0.0 0.00 0.00 0.00 50 1017.2
20260503032703 7 0.0 0.0 0.00 0.00 0.00 50 1017.1
20260503031659 7 0.0 0.0 0.00 0.00 0.00 50 1017.2
20260503030659 7 0.0 0.0 0.00 0.00 0.00 50 1017.2
20260503025702 7 0.0 0.0 0.00 0.00 0.00 49 1017.2
20260503024659 8 0.0 0.0 0.00 0.00 0.00 48 1017.2
20260503023659 8 0.0 0.0 0.00 0.00 0.00 47 1017.0
20260503022659 8 0.0 0.0 0.00 0.00 0.00 47 1017.0
20260503021659 8 0.0 0.0 0.00 0.00 0.00 47 1016.9
20260503020659 9 0.0 0.0 0.00 0.00 0.00 47 1016.9
20260503015659 8 0.0 0.0 0.00 0.00 0.00 48 1016.9
20260503014659 8 0.0 0.0 0.00 0.00 0.00 49 1017.0
20260503013659 8 0.0 0.0 0.00 0.00 0.00 49 1017.0
20260503012700 8 0.0 0.0 0.00 0.00 0.00 50 1017.2
20260503011659 8 0.0 0.0 0.00 0.00 0.00 50 1017.2
20260503010659 8 0.0 0.0 0.00 0.00 0.00 50 1017.3
20260503005659 8 0.0 0.0 0.00 0.00 0.00 52 1017.6
20260503004658 8 0.0 0.0 0.00 0.00 0.00 52 1017.6
20260503003658 8 0.0 0.0 0.00 0.00 0.00 52 1017.8
20260503002659 8 0.0 0.0 0.00 0.00 0.00 52 1017.8
20260503001659 8 0.0 0.0 0.00 0.00 0.00 51 1017.8
20260503000659 9 0.0 0.0 0.00 0.00 0.00 49 1017.7
20260502235659 9 0.0 0.0 0.00 0.00 0.00 48 1017.7
20260502234659 9 0.0 0.0 0.00 0.00 0.00 47 1017.9
20260502233659 9 0.0 0.0 0.00 0.00 0.00 47 1017.9
20260502232659 9 0.0 0.0 0.00 0.00 0.00 48 1018.2
20260502231658 9 0.0 0.0 0.00 0.00 0.00 47 1018.2
20260502230659 9 0.0 0.0 0.00 0.00 0.00 47 1018.2
20260502225659 9 0.0 0.0 0.00 0.00 0.00 47 1018.3